sat.trackr.live / text

‹ back to catalog

2023-085J

NORAD 57012 · 2023-085J

PAYLOAD ACTIVE UNKNOWN

§ Identity

Operator
Country
PRC
Launch date
2023-06-15
Launch site
TAISC
Launch vehicle
Mass (kg)
RCS (m²)

External: N2YO · Heavens-Above · Gunter

§ Orbital elements

Epoch: 2026-09-21T22:04:03.141984Z

Period
93.69 min
Inclination
97.5008°
Eccentricity
0.0006442
Mean motion
15.36969547 rev/d
Perigee alt
450.7 km
Apogee alt
459.5 km
Semi-major
6,833.2 km
B*
3.0803e-4
RAAN
19.1200°
Arg perigee
59.7498°
Mean anomaly
300.4383°
Rev number
18,161

§ Raw data

2023-085J1 57012U 23085J   26264.91948081  .00011064  00000+0  30803-3 0  99912 57012  97.5008  19.1200 0006442  59.7498 300.4383 15.36969547181610

JSON: /api/v1/satellites/57012 · /tle

For live sub-satellite position, see the globe view (requires WebGL).

§ Visibility from observer

Set your observer location to see the next 7 days of passes ≥ 10°. The values pass through the URL so the page stays shareable.

No JS? Fill the form by hand. The geolocation button needs JavaScript.